AII-BRAVO (48270 NORAD) Tracking and Keplerian Element Data

This shows tracking and keplerian element data for the satellite.

Feedback or suggestion? Click here.




ElementValue
Catalog48270
NameAII-BRAVO
Epoch Orbit264
Epoch Day136.92539484
Epoch Year2021
RAAN212.1999
Inclination97.7863
Eccentricity0.0002365
Argument of Perigee305.1218
Mean Anonmoly54.9776
Mean Motion14.85668861
Decay Rate2.89E-06
L11 48270U 21034C 21136.92539484 .00000289 00000-0 39410-4 0 9998
L22 48270 97.7863 212.1999 0002365 305.1218 54.9776 14.85668861 2645

Live tracking and technical data element details for AII-BRAVO (NORAD 48270). AII-BRAVO can be tracked NOW for your location showing map with azimuth and elevation plus other details from your city location.

Track the satellite on the map from your city or location and see movement details for azimuth, elevation, latitude, longitude, range, height, and movement on the map or in text.







IsCatalogInMostPopularTable: catalog: 48270, numindb: 2
Update: records affected: 1



GetName: 48270 AII-BRAVO

Hit Count: updated at: Mon, 17 May 2021 16:43:04 GMT